EWG6MG EDDB-LEPA

Flight info

Callsign EWG6MG
Flight time N/A
Altitude 36000
Route LUROS3Q/06R LUROS Y211 BEBKU Z36 MAREM DCT RUDAP DCT EBEDA DCT BADVI DCT BERAS DCT OLPIX DCT EKPEB DCT PIDAD DCT TALEP DCT RARQU DCT BALEN UT250 RIXOT
Aircraft A320/M-SDE3FGHIRWY/LB1

Departure

Time 2026-05-05 18:28
Airport Berlin Brandenburg Airport (EDDB)

Arrival

Time N/A
Airport Palma de Mallorca Airport (LEPA)
Time Latitude Longitude Altitude Speed Heading
2026-05-05 17:58 52.36068 13.51048 155 ft 0 kts 339°
2026-05-05 18:18 52.36055 13.51056 155 ft 4 kts 339°
2026-05-05 18:18 52.36030 13.51072 155 ft 4 kts 339°
2026-05-05 18:18 52.36009 13.51084 155 ft 4 kts 331°
2026-05-05 18:18 52.35993 13.51112 155 ft 4 kts 280°
2026-05-05 18:19 52.35995 13.51150 155 ft 4 kts 249°
2026-05-05 18:19 52.36000 13.51171 155 ft 0 kts 249°
2026-05-05 18:21 52.36000 13.51170 155 ft 1 kts 249°
2026-05-05 18:22 52.35987 13.51116 155 ft 8 kts 249°
2026-05-05 18:22 52.35968 13.51037 155 ft 9 kts 248°
2026-05-05 18:22 52.35938 13.50913 154 ft 12 kts 248°
2026-05-05 18:22 52.35909 13.50791 154 ft 11 kts 249°
2026-05-05 18:23 52.35883 13.50682 154 ft 10 kts 249°
2026-05-05 18:23 52.35838 13.50627 154 ft 5 kts 179°
2026-05-05 18:23 52.35835 13.50628 154 ft 0 kts 172°
2026-05-05 18:23 52.35814 13.50638 154 ft 10 kts 166°
2026-05-05 18:24 52.35759 13.50563 154 ft 11 kts 248°
2026-05-05 18:24 52.35721 13.50406 154 ft 17 kts 248°
2026-05-05 18:24 52.35679 13.50229 154 ft 16 kts 248°
2026-05-05 18:24 52.35631 13.50029 154 ft 21 kts 249°
2026-05-05 18:25 52.35580 13.49812 154 ft 20 kts 249°
2026-05-05 18:25 52.35548 13.49676 154 ft 19 kts 249°
2026-05-05 18:25 52.35488 13.49425 154 ft 17 kts 249°
2026-05-05 18:25 52.35443 13.49236 154 ft 20 kts 249°
2026-05-05 18:26 52.35388 13.49002 154 ft 22 kts 249°
2026-05-05 18:26 52.35334 13.48776 154 ft 20 kts 249°
2026-05-05 18:26 52.35285 13.48568 154 ft 19 kts 249°
2026-05-05 18:26 52.35198 13.48490 154 ft 16 kts 161°
2026-05-05 18:27 52.35110 13.48572 154 ft 14 kts 120°
2026-05-05 18:27 52.35087 13.48760 154 ft 20 kts 99°
2026-05-05 18:27 52.35060 13.48988 154 ft 21 kts 95°
2026-05-05 18:27 52.35110 13.49227 154 ft 32 kts 68°
2026-05-05 18:28 52.35611 13.51343 197 ft 153 kts 70°
2026-05-05 18:28 52.35802 13.53031 809 ft 155 kts 102°
2026-05-05 18:28 52.35200 13.54503 1468 ft 161 kts 134°
2026-05-05 18:29 52.34310 13.55771 1889 ft 180 kts 137°
2026-05-05 18:29 52.33297 13.57175 2262 ft 200 kts 136°
2026-05-05 18:29 52.32235 13.58719 2824 ft 206 kts 135°
2026-05-05 18:29 52.31292 13.60460 3489 ft 209 kts 118°
2026-05-05 18:30 52.30900 13.62746 4046 ft 217 kts 95°
2026-05-05 18:30 52.30549 13.65283 4377 ft 243 kts 119°
2026-05-05 18:30 52.29276 13.67219 4842 ft 264 kts 157°
2026-05-05 18:30 52.27469 13.67966 5630 ft 271 kts 173°
2026-05-05 18:31 52.25578 13.68201 6521 ft 275 kts 178°
2026-05-05 18:31 52.23656 13.68331 7430 ft 277 kts 179°
2026-05-05 18:31 52.21726 13.68513 8338 ft 280 kts 177°
2026-05-05 18:31 52.19772 13.68801 9215 ft 283 kts 175°
2026-05-05 18:32 52.17801 13.69182 10047 ft 288 kts 174°
2026-05-05 18:32 52.15763 13.69638 10347 ft 311 kts 173°
2026-05-05 18:32 52.13537 13.70178 10600 ft 334 kts 173°
2026-05-05 18:32 52.11196 13.70770 11138 ft 345 kts 173°
2026-05-05 18:33 52.08806 13.71385 11867 ft 349 kts 173°
2026-05-05 18:33 52.06396 13.72005 12635 ft 352 kts 173°
2026-05-05 18:33 52.03964 13.72622 13402 ft 355 kts 173°
2026-05-05 18:33 52.01512 13.73241 14093 ft 358 kts 174°
2026-05-05 18:34 51.99037 13.73863 14748 ft 361 kts 174°
2026-05-05 18:34 51.96543 13.74487 15402 ft 365 kts 174°
2026-05-05 18:34 51.94019 13.75116 16050 ft 368 kts 174°
2026-05-05 18:34 51.91480 13.75747 16703 ft 371 kts 174°
2026-05-05 18:35 51.88921 13.76383 17348 ft 374 kts 174°
2026-05-05 18:35 51.86371 13.77017 17969 ft 377 kts 173°
2026-05-05 18:35 51.83729 13.77678 18539 ft 381 kts 173°
2026-05-05 18:35 51.81133 13.78328 19085 ft 383 kts 174°
2026-05-05 18:36 51.78487 13.78985 19659 ft 386 kts 174°
2026-05-05 18:36 51.75817 13.79644 20233 ft 389 kts 174°
2026-05-05 18:36 51.73132 13.80307 20785 ft 392 kts 174°
2026-05-05 18:36 51.70421 13.80976 21318 ft 394 kts 174°
2026-05-05 18:37 51.67698 13.81646 21851 ft 397 kts 174°
2026-05-05 18:37 51.64961 13.82322 22366 ft 399 kts 174°
2026-05-05 18:37 51.62211 13.83001 22651 ft 400 kts 174°
2026-05-05 18:37 51.59493 13.83670 22924 ft 401 kts 174°
2026-05-05 18:38 51.56715 13.84352 23328 ft 404 kts 174°
2026-05-05 18:38 51.53924 13.85034 23740 ft 407 kts 174°
2026-05-05 18:38 51.51123 13.85719 24135 ft 409 kts 174°
2026-05-05 18:38 51.48293 13.86408 24519 ft 411 kts 175°
2026-05-05 18:39 51.45442 13.86671 24876 ft 410 kts 184°
2026-05-05 18:39 51.42604 13.86177 25250 ft 410 kts 192°
2026-05-05 18:39 51.39790 13.85345 25620 ft 412 kts 192°
2026-05-05 18:39 51.36966 13.84520 25982 ft 414 kts 192°
2026-05-05 18:40 51.34126 13.83700 26338 ft 416 kts 192°
2026-05-05 18:40 51.31266 13.82879 26680 ft 418 kts 192°
2026-05-05 18:40 51.28439 13.82068 27012 ft 420 kts 192°
2026-05-05 18:40 51.25549 13.81239 27342 ft 422 kts 192°
2026-05-05 18:41 51.22651 13.80408 27656 ft 424 kts 192°
2026-05-05 18:41 51.19735 13.79571 27994 ft 426 kts 192°
2026-05-05 18:41 51.16813 13.78731 28316 ft 427 kts 192°
2026-05-05 18:41 51.13882 13.77893 28611 ft 429 kts 192°
2026-05-05 18:42 51.10934 13.77053 28898 ft 431 kts 192°
2026-05-05 18:42 51.07980 13.76215 29167 ft 433 kts 192°
2026-05-05 18:42 51.05010 13.75369 29432 ft 434 kts 192°
2026-05-05 18:42 51.02031 13.74517 29702 ft 435 kts 192°
2026-05-05 18:43 50.99052 13.73669 30024 ft 434 kts 192°
2026-05-05 18:43 50.96084 13.72826 30377 ft 431 kts 192°
2026-05-05 18:43 50.93134 13.71990 30704 ft 430 kts 192°
2026-05-05 18:43 50.90191 13.71160 31005 ft 429 kts 192°
2026-05-05 18:44 50.87306 13.70014 31302 ft 427 kts 197°
2026-05-05 18:44 50.84449 13.68719 31600 ft 426 kts 198°
2026-05-05 18:44 50.81594 13.67423 31888 ft 426 kts 198°
2026-05-05 18:44 50.78749 13.66133 32198 ft 425 kts 198°
2026-05-05 18:45 50.75909 13.64846 32496 ft 425 kts 197°
2026-05-05 18:45 50.73071 13.63561 32788 ft 424 kts 197°
2026-05-05 18:45 50.70191 13.62516 33085 ft 425 kts 191°
2026-05-05 18:45 50.67272 13.61778 33391 ft 425 kts 191°
2026-05-05 18:46 50.64349 13.61043 33685 ft 424 kts 191°
2026-05-05 18:46 50.61434 13.60311 33768 ft 424 kts 191°
2026-05-05 18:46 50.55617 13.58847 33775 ft 423 kts 191°
2026-05-05 18:47 50.49843 13.57387 33770 ft 423 kts 191°
2026-05-05 18:47 50.44032 13.55925 33795 ft 423 kts 191°
2026-05-05 18:48 50.41127 13.55197 34060 ft 423 kts 191°
2026-05-05 18:48 50.38225 13.54470 34343 ft 422 kts 191°
2026-05-05 18:48 50.35325 13.53740 34591 ft 421 kts 191°
2026-05-05 18:48 50.32429 13.53013 34837 ft 421 kts 191°
2026-05-05 18:49 50.29538 13.52292 35077 ft 421 kts 191°
2026-05-05 18:49 50.26645 13.51573 35310 ft 420 kts 191°
2026-05-05 18:49 50.23762 13.50857 35541 ft 419 kts 191°
2026-05-05 18:49 50.20879 13.50137 35718 ft 420 kts 191°
2026-05-05 18:50 50.15109 13.48696 35761 ft 419 kts 191°
2026-05-05 18:50 50.09344 13.47265 35758 ft 419 kts 191°
2026-05-05 18:51 50.03577 13.45856 35764 ft 419 kts 191°
2026-05-05 18:51 49.97852 13.44452 35764 ft 419 kts 191°
2026-05-05 18:52 49.92093 13.43022 35765 ft 419 kts 191°
2026-05-05 18:52 49.86324 13.41599 35741 ft 419 kts 191°
2026-05-05 18:53 49.80550 13.40189 35732 ft 421 kts 190°
2026-05-05 18:53 49.74738 13.38775 35729 ft 423 kts 191°
2026-05-05 18:54 49.68955 13.37366 35731 ft 424 kts 190°
2026-05-05 18:54 49.63124 13.35951 35731 ft 424 kts 190°
2026-05-05 18:55 49.57278 13.34541 35739 ft 425 kts 190°
2026-05-05 18:55 49.51433 13.33119 35748 ft 425 kts 190°
2026-05-05 18:56 49.45575 13.31697 35755 ft 426 kts 190°
2026-05-05 18:56 49.40704 13.30526 35757 ft 426 kts 190°
2026-05-05 18:57 49.34859 13.29124 35782 ft 425 kts 190°
2026-05-05 18:57 49.29024 13.27726 35796 ft 424 kts 190°
2026-05-05 18:58 49.23384 13.25280 35795 ft 421 kts 206°
2026-05-05 18:58 49.18469 13.20439 35786 ft 420 kts 216°
2026-05-05 18:59 49.13696 13.15278 35797 ft 420 kts 216°
2026-05-05 18:59 49.08922 13.10158 35798 ft 419 kts 216°
2026-05-05 19:00 49.04149 13.05043 35794 ft 419 kts 215°
2026-05-05 19:00 48.99376 12.99945 35815 ft 418 kts 215°
2026-05-05 19:01 48.94647 12.94901 35819 ft 417 kts 215°
2026-05-05 19:01 48.89900 12.89846 35818 ft 416 kts 215°
2026-05-05 19:02 48.85157 12.84807 35823 ft 416 kts 215°
2026-05-05 19:02 48.80415 12.79793 35820 ft 415 kts 215°
2026-05-05 19:03 48.75684 12.74786 35828 ft 414 kts 215°
2026-05-05 19:03 48.70962 12.69797 35831 ft 414 kts 215°
2026-05-05 19:04 48.66234 12.64820 35820 ft 413 kts 215°
2026-05-05 19:04 48.61506 12.59854 35826 ft 413 kts 215°
2026-05-05 19:05 48.56790 12.54909 35827 ft 413 kts 215°
2026-05-05 19:05 48.52068 12.49971 35830 ft 413 kts 215°
2026-05-05 19:06 48.47376 12.45078 35840 ft 412 kts 215°
2026-05-05 19:06 48.42650 12.40169 35842 ft 412 kts 215°
2026-05-05 19:07 48.37916 12.35272 35842 ft 412 kts 215°
2026-05-05 19:07 48.33190 12.30379 35846 ft 412 kts 215°
2026-05-05 19:08 48.28471 12.25493 35835 ft 412 kts 215°
2026-05-05 19:08 48.23775 12.20657 35845 ft 411 kts 215°
2026-05-05 19:09 48.19047 12.15798 35844 ft 411 kts 215°
2026-05-05 19:09 48.13983 12.11842 35848 ft 413 kts 199°
2026-05-05 19:10 48.08441 12.09472 35843 ft 413 kts 198°
2026-05-05 19:10 48.02907 12.07117 35839 ft 413 kts 198°
2026-05-05 19:11 47.97378 12.04760 35841 ft 413 kts 198°
2026-05-05 19:11 47.91881 12.02427 35842 ft 413 kts 198°
2026-05-05 19:12 47.86352 12.00090 35845 ft 413 kts 198°
2026-05-05 19:12 47.80818 11.97756 35843 ft 413 kts 198°
2026-05-05 19:13 47.75282 11.95436 35845 ft 413 kts 198°
2026-05-05 19:13 47.69764 11.93051 35850 ft 412 kts 199°
2026-05-05 19:14 47.64309 11.90431 35850 ft 412 kts 200°
2026-05-05 19:14 47.58860 11.87771 35834 ft 412 kts 200°
2026-05-05 19:15 47.53401 11.85158 35833 ft 413 kts 200°
2026-05-05 19:15 47.47955 11.82597 35838 ft 413 kts 200°
2026-05-05 19:16 47.42472 11.80024 35848 ft 413 kts 200°
2026-05-05 19:16 47.36981 11.77452 35853 ft 413 kts 199°
2026-05-05 19:17 47.31306 11.75869 35861 ft 416 kts 192°
2026-05-05 19:17 47.25580 11.74543 35870 ft 415 kts 192°
2026-05-05 19:18 47.19859 11.73223 35874 ft 415 kts 192°
2026-05-05 19:18 47.14175 11.71906 35874 ft 415 kts 192°
2026-05-05 19:19 47.08466 11.70586 35894 ft 416 kts 192°
2026-05-05 19:19 47.02758 11.69192 35903 ft 415 kts 197°
2026-05-05 19:20 46.97422 11.66144 35906 ft 412 kts 207°
2026-05-05 19:20 46.92217 11.62643 35921 ft 412 kts 206°
2026-05-05 19:21 46.87003 11.59163 35936 ft 412 kts 206°
2026-05-05 19:21 46.81789 11.55680 35937 ft 412 kts 206°
2026-05-05 19:22 46.76601 11.52218 35946 ft 412 kts 207°
2026-05-05 19:22 46.71384 11.48757 35965 ft 412 kts 207°
2026-05-05 19:23 46.66422 11.44687 35969 ft 409 kts 215°
2026-05-05 19:23 46.61685 11.40120 35974 ft 408 kts 215°
2026-05-05 19:24 46.56939 11.35581 36011 ft 407 kts 215°
2026-05-05 19:24 46.52216 11.31082 36003 ft 405 kts 215°
2026-05-05 19:25 46.47510 11.26600 35998 ft 404 kts 215°
2026-05-05 19:25 46.42831 11.22140 36286 ft 400 kts 215°
2026-05-05 19:26 46.40511 11.19928 36605 ft 399 kts 215°
2026-05-05 19:26 46.38178 11.17707 36875 ft 398 kts 215°
2026-05-05 19:26 46.35869 11.15516 37026 ft 400 kts 215°
2026-05-05 19:26 46.33533 11.13302 37057 ft 402 kts 215°
2026-05-05 19:27 46.28869 11.08897 37058 ft 403 kts 215°
2026-05-05 19:27 46.24173 11.04463 37056 ft 403 kts 215°
2026-05-05 19:28 46.19476 11.00035 37045 ft 403 kts 215°
2026-05-05 19:28 46.14771 10.95601 37037 ft 403 kts 215°
2026-05-05 19:29 46.10065 10.91185 37032 ft 403 kts 215°
2026-05-05 19:29 46.05387 10.86806 37021 ft 403 kts 215°
2026-05-05 19:30 46.00682 10.82417 36993 ft 403 kts 215°
2026-05-05 19:30 45.95969 10.78024 36995 ft 404 kts 215°
2026-05-05 19:31 45.91249 10.73623 37001 ft 405 kts 215°
2026-05-05 19:31 45.86521 10.69234 36983 ft 404 kts 215°
2026-05-05 19:32 45.81797 10.64859 37015 ft 404 kts 215°
2026-05-05 19:32 45.77078 10.60487 37013 ft 404 kts 215°
2026-05-05 19:33 45.72351 10.56121 37014 ft 404 kts 215°
2026-05-05 19:33 45.67630 10.51775 37001 ft 404 kts 215°
2026-05-05 19:34 45.62908 10.47444 37011 ft 403 kts 215°
2026-05-05 19:35 45.55874 10.40988 37020 ft 402 kts 215°
2026-05-05 19:35 45.51163 10.36681 37022 ft 402 kts 215°
2026-05-05 19:36 45.46461 10.32387 37021 ft 401 kts 215°
2026-05-05 19:36 45.41763 10.28107 36994 ft 400 kts 215°
2026-05-05 19:37 45.37071 10.23839 36992 ft 400 kts 215°
2026-05-05 19:37 45.32378 10.19583 36991 ft 400 kts 215°
2026-05-05 19:38 45.27718 10.15373 36975 ft 399 kts 215°
2026-05-05 19:38 45.23001 10.11108 36979 ft 399 kts 215°
2026-05-05 19:39 45.18347 10.06899 36984 ft 399 kts 215°
2026-05-05 19:39 45.13666 10.02681 36992 ft 399 kts 215°
2026-05-05 19:40 45.08979 9.98474 36991 ft 398 kts 215°
2026-05-05 19:40 45.04302 9.94285 36984 ft 398 kts 215°
2026-05-05 19:41 44.99633 9.90105 36971 ft 397 kts 215°
2026-05-05 19:41 44.94958 9.85941 36952 ft 397 kts 215°
2026-05-05 19:42 44.90286 9.81779 36952 ft 397 kts 215°
2026-05-05 19:42 44.85624 9.77620 36956 ft 397 kts 215°
2026-05-05 19:43 44.81711 9.74139 36951 ft 397 kts 215°
2026-05-05 19:43 44.77071 9.70021 36943 ft 397 kts 216°
2026-05-05 19:44 44.72392 9.65882 36956 ft 396 kts 216°
2026-05-05 19:44 44.67715 9.61760 36965 ft 396 kts 215°
2026-05-05 19:45 44.63041 9.57645 36970 ft 396 kts 215°
2026-05-05 19:45 44.58365 9.53528 36956 ft 396 kts 216°
2026-05-05 19:46 44.53689 9.49423 36965 ft 397 kts 216°
2026-05-05 19:46 44.49008 9.45324 36996 ft 397 kts 215°
2026-05-05 19:47 44.44248 9.41394 36990 ft 398 kts 212°
2026-05-05 19:47 44.39320 9.37854 36989 ft 398 kts 210°
2026-05-05 19:48 44.34371 9.34377 36985 ft 397 kts 211°
2026-05-05 19:48 44.29486 9.30866 36984 ft 396 kts 211°
2026-05-05 19:49 44.24590 9.27290 36980 ft 396 kts 211°
2026-05-05 19:49 44.19698 9.23727 36984 ft 396 kts 211°
2026-05-05 19:50 44.14841 9.20209 36973 ft 395 kts 211°
2026-05-05 19:50 44.09962 9.16686 36975 ft 395 kts 211°
2026-05-05 19:51 44.05083 9.13168 36962 ft 394 kts 212°
2026-05-05 19:51 44.00215 9.09658 36985 ft 393 kts 212°
2026-05-05 19:52 43.95365 9.06170 36998 ft 392 kts 211°
2026-05-05 19:52 43.90525 9.02703 36986 ft 391 kts 211°
2026-05-05 19:53 43.85719 8.99270 36958 ft 390 kts 211°
2026-05-05 19:53 43.80892 8.95818 36970 ft 390 kts 211°
2026-05-05 19:54 43.76076 8.92374 36976 ft 389 kts 211°
2026-05-05 19:54 43.71260 8.88941 36979 ft 389 kts 211°
2026-05-05 19:55 43.66440 8.85522 36955 ft 389 kts 211°
2026-05-05 19:55 43.61623 8.82107 36959 ft 389 kts 212°
2026-05-05 19:56 43.56803 8.78689 36962 ft 389 kts 211°
2026-05-05 19:56 43.51979 8.75279 36965 ft 389 kts 211°
2026-05-05 19:57 43.47197 8.71866 36958 ft 388 kts 215°